034  
ASUS44 KLIX 220913  
RWRLIX  
NEW ORLEANS REGIONAL WEATHER ROUNDUP  
NATIONAL WEATHER SERVICE NEW ORLEANS LA  
400 AM CDT FRI SEP 22 2017  
 
NOTE: "FAIR" INDICATES FEW OR NO CLOUDS BELOW 12,000 FEET WITH NO  
SIGNIFICANT WEATHER AND/OR S TO VISIBILITY
.  
SKY/WX - SKY CONDITION AND SIGNIFICANT WEATHER.  
TMP - AIR TEMPERATURE. DP - DEWPOINT TEMPERATURE.  
RH - RELATIVE HUMIDITY. PRES - PRESSURE.  
HI - HEAT INDEX. WCI - WIND CHILL INDEX.  
 
* THESE STATIONS ARE NOT NWS OR FAA STATIONS AND ARE NOT UNDER  
NWS QUALITY CONTROL.  
 
LAZ038-040-048-061>063-065>067-069-221000-  
SOUTHEAST LOUISIANA  
 
CITY SKY/WX TMP DP RH WIND PRES REMARKS
 
N.O. INTL ARPT PTCLDY 76 75 97 CALM 29.95F  
N.O. LAKEFRONT PTCLDY 81 75 82 NE5 29.96S  
N.O. DOWNTOWN* N/A 81 74 79 CALM 29.96F  
RESERVE* N/A 77 74 92 CALM 29.96S FOG  
SLIDELL CLEAR 70 68 93 CALM 29.95S  
BATON ROUGE CLEAR 71 69 93 CALM 29.96F  
BOOTHVILLE CLEAR 77 76 96 CALM 29.95S FOG  
BELLE CHASSE NOT AVBL  
BOGALUSA* N/A 70 67 89 CALM 29.98S  
GALLIANO* SUNNY 72 69 92 CALM 29.95S FOG  
NEW ROADS* N/A 70 69 96 CALM 29.97S  
GONZALES* N/A 72 71 98 CALM 29.95S  
HAMMOND* CLEAR 70 66 88 CALM 29.96F  
HOUMA* NOT AVBL  
PORT FOURCHON* MOSUNNY 82 75 78 E5 29.95S  
 

 
 
MSZ070-080>082-221000-  
SOUTHERN MISSISSIPPI  
 
CITY SKY/WX TMP DP RH WIND PRES REMARKS
 
MCCOMB CLEAR 70 67 90 CALM 29.98S  
GULFPORT CLEAR 71 70 96 NW3 29.95S  
BILOXI CLEAR 74 70 88 N3 29.95R  
PASCAGOULA CLEAR 69 66 90 CALM 29.95S FOG  
 

 
 
COASTAL OBSERVATIONS  
LAKE AND NEARSHORE STATIONS  
 
STATION/POSITION TIME TEMP WIND PRES WAVE
 
AIR SEA DIR/SP/G HT/PER  
(UTC) (F) (DEG/KT/KT) (MB) (FT/S)  
PASCAGOULA 0848 73 10/ 6/ 8 1013.8  
WAVELAND YACHT 0848 78 85 10/ 6/ 7 1014.3  
GRAND ISLE 0848 81 86 110/ 3/ 5 1014.2  
SOUTHWEST PASS 0848 81 40/ 2/ 4 N/A  
NEW CANAL 0848 81 83 40/ 5/ 6 1014.2  
SHELL BEACH 0848 81 88 20/ 3/ 4 1014.4  
 
OFFSHORE STATIONS  
 
STATION/POSITION TIME TEMP WIND PRES WAVE
 
AIR SEA DIR/SP/G HT/PER  
(UTC) (F) (DEG/KT/KT) (MB) (FT/S)  
64 S DAUPHIN ISL 0850 82 84 60/ 4/ 6 1014.0 1/ 5  
 

 
 
 
 
CLICK HERE TO GO TO PREVIOUS BULLETINS.

The Nexlab LA Page
The Nexlab MS Page Main Text Page